Kuchera_Ratio
0.0 0.0 0.0 0.0 0.0 0.0 0.0 0.0 0.0 0.0 0.0 0.0 0.0 0.0 0.0 0.0 0.0 0.0 0.0 0.0 0.0 0.0 0.0 0.0 0.0 0.0 0.0 0.0 0.0 0.0 0.0 0.0 0.0 0.0 0.0 0.0 0.0 0.0 0.0 0.0 0.0 0.0 0.0 0.0 0.0 0.1 1.1 0.0 0.0 0.0 0.0 0.0 0.0 0.0
0.0 0.0 0.0 0.0 0.0 0.0 0.0 0.0 0.0 0.0 0.0 0.0 0.0 0.0 0.0 0.0 0.0 0.0 0.0 0.0 0.0 0.0 0.0 0.0 0.0 0.0 0.0 0.0 0.0 0.0 0.0 0.0 0.0 0.0 0.0 0.0 0.0 0.0 0.0 0.0 0.0 0.0 0.0 0.0 0.0 0.0 0.0 0.0 0.0 0.0 0.0 0.0 0.0 0.0
0.0 0.0 0.0 0.0 0.0 0.0 0.0 0.0 0.0 0.0 0.0 0.0 0.0 0.0 0.0 0.0 0.0 0.0 0.0 0.0 0.0 0.0 0.0 0.0 0.0 0.0 0.0 0.0 0.0 0.0 0.0 0.0 0.0 0.0 0.0 0.0 0.0 0.0 0.0 0.0 0.0 0.0 0.0 0.0 0.0 0.0 0.0 0.0 0.0 0.0 0.0 0.0 0.0 0.0
0.0 0.0 0.0 0.0 0.0 0.0 0.0 0.0 0.0 0.0 0.0 0.0 0.0 0.0 0.0 0.0 0.0 0.0 0.0 0.0 0.0 0.0 1.7 0.0 0.0 0.0 0.0 0.0 0.0 0.0 0.0 0.0 0.0 0.0 0.0 0.0 0.0 0.0 0.0 0.0 0.0 0.0 0.0 0.0 0.0 0.0 0.0 0.0 0.0 0.0 0.0 0.0 0.0 0.0
0.0 0.0 0.0 0.0 0.0 0.0 0.0 0.0 0.0 0.0 0.0 0.0 0.0 0.0 0.0 0.0 0.0 0.0 0.0 0.0 0.0 0.0 0.0 0.0 0.0 0.0 0.0 0.0 0.0 0.0 0.0 0.0 0.0 0.0 0.0 0.0 0.0 0.0 0.0 0.0 0.0 0.0 0.0 0.0 0.0 0.0 0.0 0.0 0.0 0.0 0.0 0.0 0.0 0.0
0.0 0.0 0.0 0.0 0.0 0.0 0.0 0.0 0.0 0.0 0.0 0.0 0.0 0.0 0.0 0.0 0.0 0.0 0.0 0.0 0.0 0.0 0.0 1.5 0.0 0.0 0.0 0.0 0.0 0.0 0.0 0.0 0.0 0.0 0.0 0.0 0.0 0.0 0.0 0.0 0.0 0.0 0.0 0.0 0.0 0.0 0.0 0.0 0.0 0.0 0.0 0.0 0.0 0.0
0.0 0.0 0.0 0.0 0.0 0.0 0.0 0.0 0.0 0.0 0.0 0.0 0.0 0.0 0.0 0.0 0.0 0.0 0.0 0.0 0.0 0.0 0.0 0.0 0.0 0.0 0.0 0.0 0.0 0.0 0.0 0.0 0.0 0.0 0.0 0.0 0.0 0.0 0.0 0.0 0.0 0.0 0.0 0.0 0.0 0.0 0.0 0.0 0.0 0.0 0.0 0.0 0.0 0.0
0.0 0.0 0.0 0.0 0.0 0.0 0.0 0.0 0.0 0.0 0.0 0.0 0.0 0.0 0.0 0.0 0.0 0.0 0.0 0.0 0.0 0.0 0.0 0.0 0.0 0.0 0.0 0.0 0.0 0.0 0.0 0.0 0.0 0.0 0.0 0.0 0.0 0.0 0.0 0.0 0.0 0.0 0.0 0.0 0.0 0.0 0.0 0.0 0.0 0.0 0.0 0.0 0.0 0.0
0.0 0.0 0.0 0.0 0.0 0.0 0.0 0.0 0.0 0.0 0.0 0.0 0.0 0.0 0.0 0.0 0.0 0.0 0.0 0.0 0.0 0.0 0.0 2.7 1.7 3.7 0.0 0.0 0.0 0.0 0.0 0.0 0.0 0.0 0.0 0.0 0.0 0.0 0.0 0.0 0.0 0.0 0.0 0.0 0.0 0.0 0.0 0.0 0.0 0.0 0.0 0.0 0.0 0.0
0.0 0.0 0.0 0.0 0.0 0.0 0.0 0.0 0.0 0.0 0.0 0.0 0.0 0.0 0.5 0.0 0.0 0.0 0.0 0.0 0.0 0.0 0.0 0.0 0.0 0.0 0.0 0.0 0.0 0.0 0.0 0.0 0.5 0.0 0.0 0.0 0.0 0.0 0.0 0.0 0.0 0.0 0.0 0.0 0.0 0.0 0.0 0.0 0.0 0.0 0.0 0.0 0.0 0.0
0.0 0.0 0.0 0.0 0.0 0.0 0.0 0.0 0.0 0.0 0.0 0.0 0.0 1.1 0.0 0.0 0.0 0.0 1.5 0.0 0.0 2.1 0.0 0.0 0.0 0.0 0.0 4.1 5.5 2.3 7.1 3.3 5.5 0.0 0.0 0.0 0.0 3.1 0.1 0.0 0.0 0.0 0.0 0.0 0.0 0.0 0.0 0.0 0.0 0.0 0.0 0.0 0.0 0.0
0.0 0.0 0.0 0.0 0.0 0.0 0.0 0.0 0.0 0.0 0.0 0.0 0.0 0.0 0.0 0.0 0.1 5.5 5.7 0.3 0.7 1.9 0.0 0.0 0.0 0.0 0.9 0.0 1.7 0.6 5.7 4.7 7.1 0.0 1.3 7.5 8.1 4.7 4.3 3.3 3.5 0.0 0.0 0.0 0.0 0.0 0.0 0.0 0.0 1.1 3.5 4.1 4.2 4.9
0.0 0.0 0.0 0.0 0.0 0.0 0.0 0.0 0.0 0.0 0.0 0.0 0.0 0.0 0.0 2.5 9.7 9.1 12.1 6.7 4.7 0.0 0.0 0.0 3.5 0.0 0.0 0.0 4.5 5.1 7.3 6.7 0.7 6.1 11.7 10.9 7.5 6.3 6.7 6.5 7.5 6.5 6.3 6.7 7.9 6.7 7.1 7.7 7.5 6.8 8.4 8.6 10.0 12.1
0.0 0.0 0.0 0.0 0.0 0.0 0.0 0.0 0.0 0.0 0.0 0.0 4.9 9.9 8.7 10.1 9.9 11.5 11.1 10.5 7.1 6.1 3.1 0.0 0.9 1.7 2.7 5.5 6.5 8.1 7.1 7.5 7.1 9.5 12.8 10.1 9.3 8.5 8.3 8.9 9.3 11.5 11.3 11.3 11.5 11.1 11.3 11.5 11.9 11.3 11.7 11.9 12.4 13.2
0.0 0.0 0.0 0.0 0.0 0.0 0.0 0.0 0.0 0.0 0.0 6.5 4.5 13.0 12.3 9.1 8.1 9.1 8.1 7.7 8.3 7.9 5.7 1.1 3.1 1.9 6.9 7.9 7.7 7.3 8.1 12.5 12.2 13.3 11.3 9.3 7.9 8.5 9.5 9.3 9.3 10.1 10.5 10.9 10.7 11.5 11.9 11.7 12.2 12.7 12.3 12.4 12.9 13.7
0.0 0.0 0.0 0.0 0.0 0.0 0.0 0.0 0.0 0.0 0.0 6.1 10.5 12.6 11.7 10.7 12.5 11.1 11.1 11.7 8.3 10.1 7.1 3.3 6.7 6.9 8.3 7.3 10.5 13.4 12.9 16.1 14.2 12.3 10.1 8.7 9.7 9.5 9.7 9.5 9.7 9.7 10.1 10.7 10.9 11.1 11.9 12.5 12.8 12.7 12.5 12.6 13.0 13.1
0.0 0.0 0.0 0.0 0.0 0.0 0.0 0.0 0.0 3.5 6.7 9.9 12.7 11.1 12.7 13.1 14.1 12.4 11.3 11.3 9.1 11.1 8.3 3.7 12.1 12.8 5.1 10.3 14.3 13.2 15.0 13.8 12.8 12.5 11.5 10.3 10.5 10.7 10.3 10.3 10.7 10.7 11.3 11.5 11.7 11.7 12.3 11.9 11.3 12.4 14.0 13.8 13.4 13.6
0.0 0.0 0.0 0.0 0.0 0.0 0.0 0.0 1.9 6.1 13.5 12.8 13.6 13.3 12.9 12.9 13.5 12.4 10.1 9.9 9.1 8.1 7.5 13.0 7.1 14.0 16.3 16.1 16.6 14.4 12.5 12.7 12.8 13.4 12.9 12.6 12.6 12.4 11.3 12.1 11.9 11.9 12.2 12.4 12.4 12.5 12.6 13.1 13.3 13.7 13.2 13.1 13.2 13.2
0.0 0.0 0.0 0.0 0.0 0.0 0.9 1.1 0.0 12.4 13.1 12.3 12.5 12.2 12.6 13.0 12.6 12.3 11.3 10.9 8.7 7.3 9.7 13.1 16.9 18.0 17.6 15.9 16.0 14.6 12.9 13.1 14.5 14.5 14.6 13.9 13.3 13.5 13.6 13.4 13.3 13.5 13.6 13.7 13.8 14.1 13.8 13.3 13.2 13.0 13.0 13.0 14.2 13.5
0.0 0.0 0.0 0.0 0.0 0.0 3.3 4.9 0.0 7.7 12.7 12.3 11.3 13.4 13.5 13.8 13.0 13.0 13.1 12.7 12.4 13.4 16.1 18.0 18.9 18.1 17.4 16.2 14.9 15.0 12.8 12.5 13.8 15.5 15.9 15.2 14.5 14.5 14.4 14.2 14.5 14.6 14.8 14.7 14.6 14.5 14.6 14.9 14.4 14.6 14.7 14.9 15.9 16.6
0.0 0.0 0.0 0.0 0.0 0.0 1.1 1.3 3.1 2.7 5.7 7.9 6.9 7.9 11.7 10.1 13.8 15.0 14.6 11.7 15.1 16.7 18.3 16.8 17.3 16.2 15.2 15.0 14.3 14.7 15.3 14.4 15.0 15.1 16.2 16.8 15.5 15.4 15.8 15.7 15.4 15.6 16.5 16.7 17.0 17.1 16.6 16.6 15.8 15.4 16.6 17.5 16.8 15.7
0.0 0.0 0.0 0.0 0.0 0.0 0.9 0.0 0.9 0.0 2.3 4.3 4.9 5.3 11.3 13.4 13.8 13.8 12.3 15.8 16.9 16.8 16.2 16.2 15.9 15.9 16.2 16.4 15.7 15.2 15.5 15.6 15.9 16.2 16.5 16.4 17.6 17.3 17.4 17.1 17.4 18.2 18.0 17.9 17.7 18.5 18.1 16.8 16.0 16.2 16.5 17.0 17.5 18.0
0.0 0.0 0.0 0.0 6.5 6.7 8.5 0.0 6.1 3.3 10.3 8.7 5.9 11.5 12.7 13.3 11.7 6.7 16.0 15.4 15.9 14.0 14.2 14.8 15.3 14.9 15.6 15.5 15.4 15.7 15.5 16.0 16.9 17.2 17.2 17.3 17.2 17.2 17.3 16.9 16.3 17.4 18.0 17.4 16.4 17.4 18.2 17.6 17.7 17.9 17.7 17.6 17.8 18.4
0.0 5.7 9.3 8.5 6.3 12.3 5.3 8.9 3.1 7.1 7.9 10.3 12.3 14.9 14.5 13.0 8.7 14.5 18.3 17.2 15.6 13.5 14.0 14.1 13.5 15.2 15.8 16.5 17.5 17.1 16.1 15.4 16.5 16.8 16.6 17.4 18.3 18.1 17.1 17.1 16.6 16.4 16.5 16.8 17.3 17.9 18.0 18.5 18.7 19.4 20.0 19.8 20.0 20.2
10.1 13.5 9.7 12.6 6.3 9.3 11.7 12.2 11.9 11.1 14.4 12.8 14.3 15.1 14.4 10.1 15.5 16.9 18.3 17.3 16.4 15.9 15.2 14.6 14.8 15.2 17.1 17.7 17.3 17.3 15.7 16.1 17.8 18.7 16.7 14.8 16.4 17.2 18.2 18.4 18.6 18.1 16.7 17.9 19.2 19.4 19.8 19.4 19.5 20.2 21.0 22.1 21.4 21.5
15.5 13.5 12.9 12.2 12.2 12.2 12.1 14.3 13.9 13.9 13.5 15.1 15.5 13.5 12.5 14.4 17.2 19.5 17.9 17.2 17.4 16.7 16.2 15.8 16.6 17.3 17.7 17.0 18.2 18.6 17.7 14.8 16.5 19.4 18.9 17.8 17.3 17.4 18.5 19.6 21.0 21.2 18.4 18.6 19.2 20.1 20.7 20.7 20.9 21.1 21.2 22.0 23.5 22.2
14.8 14.6 11.9 5.1 7.1 8.1 12.4 11.9 10.5 13.8 16.0 16.7 15.5 15.6 15.2 18.8 20.3 19.0 16.5 15.8 16.9 16.7 15.3 14.7 14.6 15.9 17.0 17.3 17.1 17.2 17.2 17.3 18.0 18.6 17.8 18.1 18.6 19.1 20.0 21.6 23.0 21.6 19.2 19.6 20.1 20.4 21.2 21.6 22.0 21.9 22.0 22.1 22.3 22.4
12.9 12.8 16.7 14.3 14.7 12.5 15.7 15.4 16.2 17.1 16.9 15.1 14.3 19.2 19.9 19.6 20.1 17.6 16.9 15.8 16.2 15.7 16.2 16.2 16.1 16.0 16.7 16.9 16.2 16.4 17.2 18.2 18.3 18.0 18.2 18.5 18.6 19.0 20.0 20.9 20.8 21.0 21.5 21.5 20.9 21.6 21.6 22.2 22.3 22.6 22.9 23.0 23.0 22.0
13.8 12.3 14.8 18.0 16.5 17.0 17.5 16.9 17.3 17.1 16.3 15.1 16.8 19.2 19.9 18.1 16.6 17.1 16.4 15.7 15.0 15.8 17.2 17.9 18.0 16.9 17.4 17.7 18.1 18.0 18.1 18.1 19.0 21.0 21.1 21.3 21.7 22.2 20.1 20.1 20.6 20.9 20.1 20.4 21.6 21.8 22.8 22.7 23.7 23.5 22.7 22.5 22.1 21.8
14.6 10.7 16.4 18.0 18.9 20.0 19.1 16.7 18.5 16.4 15.4 16.5 17.0 18.2 19.0 18.8 17.3 14.9 15.3 15.7 16.6 17.6 17.5 17.4 17.1 17.3 18.4 18.7 20.5 20.9 20.6 20.7 21.1 21.0 21.1 22.6 22.9 21.2 21.1 21.3 21.3 21.3 20.9 21.1 21.6 21.3 22.2 21.8 21.2 21.7 22.9 23.1 23.7 25.0
9.9 12.3 15.4 16.6 19.1 18.2 17.8 16.5 15.8 15.9 16.1 17.0 16.2 18.4 20.0 19.7 18.3 16.7 16.8 16.9 17.2 17.5 18.1 18.8 18.6 18.1 18.9 19.5 19.4 20.2 22.3 22.1 23.2 22.7 21.2 20.9 21.0 21.4 22.2 22.0 22.0 21.6 21.3 22.0 22.5 22.7 24.0 23.5 22.7 23.2 23.7 24.7 25.4 25.9
13.0 14.8 17.0 19.4 19.3 17.3 15.8 15.4 15.5 16.7 16.5 17.4 18.9 18.5 18.9 18.6 20.1 19.3 17.5 17.0 17.6 18.2 21.3 17.9 18.9 20.5 20.1 20.4 21.1 22.1 23.2 21.4 21.9 22.0 21.8 21.8 21.7 22.0 21.5 21.5 21.6 21.7 22.5 23.2 22.7 23.3 23.7 24.4 24.5 24.3 24.8 25.1 25.8 26.5
14.6 14.7 15.4 16.9 18.5 17.7 16.7 15.8 16.4 17.7 16.7 17.9 18.3 17.8 18.2 18.6 20.7 19.7 17.8 17.1 18.0 17.5 18.3 18.4 19.1 20.0 21.0 20.7 20.6 22.1 22.4 22.5 24.9 23.7 24.8 25.3 26.6 25.6 25.1 21.9 22.2 22.6 23.2 23.6 23.4 23.3 24.0 24.4 25.2 25.5 26.0 26.2 26.2 26.9